| time (UTC) | temp F | wind direction | speed MPH | gust MPH | rain 1hr in | rain 24hr in | rain mn in | humidity % | barometer mb |
| 20260905182445 | 92 | 164 | 1.0 | 1.0 | 0.00 | 0.00 | 0.00 | 52 | 1013.4 |
| 20260905181940 | 92 | 181 | 1.0 | 2.0 | 0.00 | 0.00 | 0.00 | 54 | 1013.5 |
| 20260905181435 | 92 | 279 | 5.0 | 6.0 | 0.00 | 0.00 | 0.00 | 51 | 1013.7 |
| 20260905180934 | 92 | 176 | 3.0 | 3.0 | 0.00 | 0.00 | 0.00 | 52 | 1013.7 |
| 20260905180429 | 93 | 152 | 1.0 | 2.0 | 0.00 | 0.00 | 0.00 | 51 | 1013.8 |
| 20260905175925 | 93 | 176 | 0.0 | 1.0 | 0.00 | 0.00 | 0.00 | 50 | 1013.9 |
| 20260905175424 | 92 | 190 | 1.0 | 1.0 | 0.00 | 0.00 | 0.00 | 50 | 1013.8 |
| 20260905174919 | 91 | 164 | 1.0 | 2.0 | 0.00 | 0.00 | 0.00 | 53 | 1013.8 |
| 20260905174415 | 92 | 280 | 4.0 | 4.0 | 0.00 | 0.00 | 0.00 | 50 | 1014.1 |
| 20260905173910 | 92 | 191 | 1.0 | 3.0 | 0.00 | 0.00 | 0.00 | 53 | 1013.9 |
| 20260905173407 | 91 | 163 | 0.0 | 1.0 | 0.00 | 0.00 | 0.00 | 51 | 1013.8 |
| 20260905172906 | 91 | 165 | 1.0 | 3.0 | 0.00 | 0.00 | 0.00 | 53 | 1014.2 |
| 20260905172404 | 91 | 160 | 0.0 | 0.0 | 0.00 | 0.00 | 0.00 | 54 | 1014.2 |
| 20260905171900 | 91 | 166 | 1.0 | 2.0 | 0.00 | 0.00 | 0.00 | 51 | 1014.2 |
| 20260905171357 | 90 | 175 | 4.0 | 4.0 | 0.00 | 0.00 | 0.00 | 51 | 1014.3 |
| 20260905170853 | 91 | 163 | 0.0 | 1.0 | 0.00 | 0.00 | 0.00 | 51 | 1014.3 |
| 20260905170349 | 90 | 175 | 2.0 | 3.0 | 0.00 | 0.00 | 0.00 | 53 | 1014.5 |
| 20260905165848 | 90 | 171 | 2.0 | 2.0 | 0.00 | 0.00 | 0.00 | 51 | 1014.6 |
| 20260905165343 | 89 | 156 | 0.0 | 1.0 | 0.00 | 0.00 | 0.00 | 52 | 1014.5 |
| 20260905164838 | 90 | 173 | 1.0 | 2.0 | 0.00 | 0.00 | 0.00 | 53 | 1014.8 |
| 20260905164333 | 89 | 164 | 0.0 | 0.0 | 0.00 | 0.00 | 0.00 | 54 | 1014.7 |
| 20260905163828 | 89 | 165 | 0.0 | 1.0 | 0.00 | 0.00 | 0.00 | 52 | 1014.8 |
| 20260905163325 | 90 | 166 | 1.0 | 2.0 | 0.00 | 0.00 | 0.00 | 53 | 1014.8 |
| 20260905162820 | 90 | 151 | 0.0 | 0.0 | 0.00 | 0.00 | 0.00 | 52 | 1014.9 |
| 20260905162315 | 89 | 169 | 0.0 | 0.0 | 0.00 | 0.00 | 0.00 | 53 | 1014.8 |
| 20260905161815 | 90 | 163 | 0.0 | 1.0 | 0.00 | 0.00 | 0.00 | 51 | 1014.7 |
| 20260905161314 | 89 | 163 | 0.0 | 0.0 | 0.00 | 0.00 | 0.00 | 53 | 1015.0 |
| 20260905160812 | 88 | 161 | 1.0 | 3.0 | 0.00 | 0.00 | 0.00 | 54 | 1014.8 |
| 20260905160308 | 87 | 164 | 0.0 | 1.0 | 0.00 | 0.00 | 0.00 | 58 | 1014.9 |
| 20260905155802 | 86 | 159 | 0.0 | 0.0 | 0.00 | 0.00 | 0.00 | 56 | 1014.8 |
| 20260905155305 | 86 | 165 | 2.0 | 3.0 | 0.00 | 0.00 | 0.00 | 56 | 1014.6 |
| 20260905154801 | 85 | 166 | 2.0 | 3.0 | 0.00 | 0.00 | 0.00 | 57 | 1014.7 |
| 20260905154257 | 85 | 176 | 4.0 | 6.0 | 0.00 | 0.00 | 0.00 | 55 | 1014.9 |
| 20260905153752 | 86 | 167 | 2.0 | 4.0 | 0.00 | 0.00 | 0.00 | 56 | 1014.9 |
| 20260905153248 | 86 | 145 | 2.0 | 3.0 | 0.00 | 0.00 | 0.00 | 57 | 1014.9 |
| 20260905152743 | 85 | 173 | 1.0 | 1.0 | 0.00 | 0.00 | 0.00 | 57 | 1015.0 |
| 20260905152242 | 85 | 163 | 1.0 | 2.0 | 0.00 | 0.00 | 0.00 | 58 | 1015.0 |
| 20260905151742 | 85 | 159 | 2.0 | 2.0 | 0.00 | 0.00 | 0.00 | 58 | 1015.1 |
| 20260905151238 | 84 | 146 | 1.0 | 2.0 | 0.00 | 0.00 | 0.00 | 57 | 1015.2 |
| 20260905150738 | 84 | 143 | 2.0 | 2.0 | 0.00 | 0.00 | 0.00 | 58 | 1015.2 |
| 20260905150237 | 84 | 151 | 1.0 | 1.0 | 0.00 | 0.00 | 0.00 | 59 | 1015.2 |
| 20260905145735 | 82 | 165 | 3.0 | 6.0 | 0.00 | 0.00 | 0.00 | 59 | 1015.1 |
| 20260905145230 | 83 | 175 | 4.0 | 8.0 | 0.00 | 0.00 | 0.00 | 59 | 1015.0 |
| 20260905144729 | 84 | 164 | 2.0 | 2.0 | 0.00 | 0.00 | 0.00 | 59 | 1015.3 |
| 20260905144224 | 83 | 169 | 2.0 | 2.0 | 0.00 | 0.00 | 0.00 | 61 | 1015.3 |
| 20260905143723 | 83 | 170 | 4.0 | 4.0 | 0.00 | 0.00 | 0.00 | 58 | 1015.1 |
| 20260905143223 | 83 | 154 | 1.0 | 1.0 | 0.00 | 0.00 | 0.00 | 60 | 1015.4 |
| 20260905142721 | 82 | 183 | 3.0 | 4.0 | 0.00 | 0.00 | 0.00 | 60 | 1015.4 |
| 20260905142216 | 82 | 157 | 2.0 | 2.0 | 0.00 | 0.00 | 0.00 | 61 | 1015.4 |
| 20260905141712 | 81 | 188 | 1.0 | 2.0 | 0.00 | 0.00 | 0.00 | 63 | 1015.3 |
| 20260905141208 | 81 | 139 | 4.0 | 6.0 | 0.00 | 0.00 | 0.00 | 63 | 1015.4 |
| 20260905140703 | 81 | 142 | 0.0 | 0.0 | 0.00 | 0.00 | 0.00 | 63 | 1015.5 |
| 20260905140203 | 80 | 179 | 1.0 | 2.0 | 0.00 | 0.00 | 0.00 | 63 | 1015.3 |
| 20260905135657 | 79 | 179 | 3.0 | 6.0 | 0.00 | 0.00 | 0.00 | 64 | 1015.3 |
| 20260905135154 | 80 | 133 | 4.0 | 6.0 | 0.00 | 0.00 | 0.00 | 64 | 1015.4 |
| 20260905134653 | 80 | 172 | 2.0 | 3.0 | 0.00 | 0.00 | 0.00 | 64 | 1015.5 |
| 20260905134152 | 79 | 181 | 4.0 | 6.0 | 0.00 | 0.00 | 0.00 | 66 | 1015.6 |
| 20260905133647 | 78 | 192 | 2.0 | 3.0 | 0.00 | 0.00 | 0.00 | 68 | 1015.4 |
| 20260905133141 | 78 | 159 | 3.0 | 4.0 | 0.00 | 0.00 | 0.00 | 68 | 1015.2 |
| 20260905132641 | 78 | 140 | 3.0 | 3.0 | 0.00 | 0.00 | 0.00 | 67 | 1015.3 |
| 20260905132136 | 77 | 153 | 1.0 | 2.0 | 0.00 | 0.00 | 0.00 | 70 | 1015.2 |
| 20260905131631 | 77 | 144 | 4.0 | 6.0 | 0.00 | 0.00 | 0.00 | 70 | 1015.2 |
| 20260905131126 | 77 | 94 | 1.0 | 2.0 | 0.00 | 0.00 | 0.00 | 71 | 1015.3 |
| 20260905130621 | 77 | 158 | 0.0 | 1.0 | 0.00 | 0.00 | 0.00 | 71 | 1015.6 |
| 20260905130121 | 77 | 163 | 2.0 | 3.0 | 0.00 | 0.00 | 0.00 | 71 | 1015.7 |
| 20260905125621 | 76 | 173 | 1.0 | 2.0 | 0.00 | 0.00 | 0.00 | 73 | 1015.7 |
| 20260905125117 | 75 | 186 | 3.0 | 4.0 | 0.00 | 0.00 | 0.00 | 73 | 1015.7 |
| 20260905124613 | 76 | 164 | 2.0 | 2.0 | 0.00 | 0.00 | 0.00 | 74 | 1015.5 |
| 20260905124109 | 75 | 151 | 0.0 | 1.0 | 0.00 | 0.00 | 0.00 | 75 | 1015.6 |
| 20260905123604 | 74 | 163 | 0.0 | 0.0 | 0.00 | 0.00 | 0.00 | 77 | 1015.6 |
| 20260905123101 | 74 | 205 | 1.0 | 2.0 | 0.00 | 0.00 | 0.00 | 78 | 1015.7 |
| 20260905122601 | 74 | 175 | 1.0 | 2.0 | 0.00 | 0.00 | 0.00 | 79 | 1015.6 |
| 20260905122101 | 74 | 101 | 2.0 | 2.0 | 0.00 | 0.00 | 0.00 | 79 | 1015.5 |
| 20260905121555 | 74 | 300 | 1.0 | 1.0 | 0.00 | 0.00 | 0.00 | 79 | 1015.7 |
| 20260905121051 | 73 | 190 | 3.0 | 3.0 | 0.00 | 0.00 | 0.00 | 79 | 1015.5 |
| 20260905120549 | 73 | 161 | 0.0 | 1.0 | 0.00 | 0.00 | 0.00 | 79 | 1015.5 |
| 20260905120045 | 73 | 192 | 1.0 | 2.0 | 0.00 | 0.00 | 0.00 | 80 | 1015.5 |
| 20260905115544 | 73 | 140 | 3.0 | 6.0 | 0.00 | 0.00 | 0.00 | 80 | 1015.7 |
| 20260905115039 | 73 | 158 | 0.0 | 1.0 | 0.00 | 0.00 | 0.00 | 81 | 1015.4 |
| 20260905114538 | 73 | 149 | 0.0 | 1.0 | 0.00 | 0.00 | 0.00 | 81 | 1015.2 |
| 20260905114037 | 73 | 69 | 3.0 | 4.0 | 0.00 | 0.00 | 0.00 | 80 | 1015.1 |
| 20260905113532 | 74 | 176 | 3.0 | 6.0 | 0.00 | 0.00 | 0.00 | 81 | 1015.0 |
| 20260905113028 | 74 | 234 | 1.0 | 2.0 | 0.00 | 0.00 | 0.00 | 81 | 1015.1 |
| 20260905112523 | 75 | 164 | 2.0 | 3.0 | 0.00 | 0.00 | 0.00 | 82 | 1014.9 |
| 20260905112018 | 75 | 77 | 2.0 | 2.0 | 0.00 | 0.00 | 0.00 | 86 | 1014.9 |
| 20260905111513 | 76 | 160 | 1.0 | 2.0 | 0.00 | 0.00 | 0.00 | 88 | 1014.6 |
| 20260905111012 | 76 | 152 | 2.0 | 4.0 | 0.00 | 0.00 | 0.00 | 94 | 1014.7 |
| 20260905110512 | 75 | 90 | 4.0 | 6.0 | 0.00 | 0.00 | 0.00 | 97 | 1014.6 |
| 20260905110007 | 75 | 160 | 0.0 | 0.0 | 0.00 | 0.00 | 0.00 | 97 | 1013.9 |
| 20260905105501 | 75 | 160 | 0.0 | 0.0 | 0.00 | 0.00 | 0.00 | 97 | 1014.0 |
| 20260905105000 | 75 | 164 | 0.0 | 0.0 | 0.00 | 0.00 | 0.00 | 97 | 1013.8 |
| 20260905104457 | 75 | 164 | 0.0 | 0.0 | 0.00 | 0.00 | 0.00 | 97 | 1013.8 |
| 20260905103956 | 75 | 165 | 0.0 | 0.0 | 0.00 | 0.00 | 0.00 | 97 | 1013.7 |
| 20260905103452 | 75 | 160 | 0.0 | 0.0 | 0.00 | 0.00 | 0.00 | 96 | 1013.8 |
| 20260905102948 | 75 | 160 | 0.0 | 0.0 | 0.00 | 0.00 | 0.00 | 96 | 1013.8 |
| 20260905102444 | 75 | 159 | 0.0 | 0.0 | 0.00 | 0.00 | 0.00 | 96 | 1013.8 |
| 20260905101939 | 75 | 157 | 0.0 | 0.0 | 0.00 | 0.00 | 0.00 | 96 | 1013.8 |
| 20260905101438 | 75 | 163 | 0.0 | 0.0 | 0.00 | 0.00 | 0.00 | 96 | 1013.8 |
| 20260905100937 | 75 | 163 | 0.0 | 0.0 | 0.00 | 0.00 | 0.00 | 96 | 1013.5 |
| 20260905100433 | 75 | 163 | 0.0 | 0.0 | 0.00 | 0.00 | 0.00 | 96 | 1013.5 |
| 20260905095932 | 75 | 163 | 0.0 | 0.0 | 0.00 | 0.00 | 0.00 | 96 | 1013.7 |
| 20260905095433 | 75 | 163 | 0.0 | 0.0 | 0.00 | 0.00 | 0.00 | 96 | 1013.4 |
| 20260905094932 | 75 | 163 | 0.0 | 0.0 | 0.00 | 0.00 | 0.00 | 95 | 1013.7 |
| 20260905094429 | 75 | 163 | 0.0 | 0.0 | 0.00 | 0.00 | 0.00 | 95 | 1013.7 |
| 20260905093927 | 75 | 163 | 0.0 | 0.0 | 0.00 | 0.00 | 0.00 | 95 | 1013.5 |
| 20260905093423 | 75 | 161 | 0.0 | 0.0 | 0.00 | 0.00 | 0.00 | 95 | 1013.3 |
| 20260905092918 | 76 | 163 | 0.0 | 0.0 | 0.00 | 0.00 | 0.00 | 95 | 1013.4 |
| 20260905092413 | 76 | 166 | 0.0 | 0.0 | 0.00 | 0.00 | 0.00 | 95 | 1013.4 |
| 20260905091909 | 76 | 166 | 0.0 | 0.0 | 0.00 | 0.00 | 0.00 | 95 | 1013.7 |
| 20260905091409 | 76 | 166 | 0.0 | 0.0 | 0.00 | 0.00 | 0.00 | 96 | 1013.4 |
| 20260905090908 | 76 | 165 | 0.0 | 0.0 | 0.00 | 0.00 | 0.00 | 96 | 1013.7 |
| 20260905090404 | 75 | 168 | 0.0 | 0.0 | 0.00 | 0.00 | 0.00 | 96 | 1013.9 |
| 20260905085903 | 75 | 158 | 0.0 | 0.0 | 0.00 | 0.00 | 0.00 | 96 | 1013.8 |
| 20260905085402 | 75 | 158 | 0.0 | 0.0 | 0.00 | 0.00 | 0.00 | 96 | 1013.8 |
| 20260905084859 | 75 | 158 | 0.0 | 0.0 | 0.00 | 0.00 | 0.00 | 96 | 1013.5 |
| 20260905084358 | 75 | 158 | 0.0 | 0.0 | 0.00 | 0.00 | 0.00 | 96 | 1013.4 |
| 20260905083853 | 75 | 158 | 0.0 | 0.0 | 0.00 | 0.00 | 0.00 | 96 | 1013.4 |
| 20260905083348 | 75 | 157 | 0.0 | 0.0 | 0.00 | 0.00 | 0.00 | 96 | 1013.5 |
| 20260905082843 | 75 | 163 | 0.0 | 0.0 | 0.00 | 0.00 | 0.00 | 96 | 1013.1 |
| 20260905082340 | 75 | 163 | 0.0 | 0.0 | 0.00 | 0.00 | 0.00 | 96 | 1013.0 |
| 20260905081835 | 75 | 163 | 0.0 | 0.0 | 0.00 | 0.00 | 0.00 | 96 | 1013.1 |
| 20260905081329 | 75 | 163 | 0.0 | 0.0 | 0.00 | 0.00 | 0.00 | 96 | 1012.9 |
| 20260905080828 | 75 | 163 | 0.0 | 0.0 | 0.00 | 0.00 | 0.00 | 96 | 1012.9 |
| 20260905080323 | 75 | 163 | 0.0 | 0.0 | 0.00 | 0.00 | 0.00 | 96 | 1012.8 |
| 20260905075822 | 75 | 163 | 0.0 | 0.0 | 0.00 | 0.00 | 0.00 | 95 | 1012.9 |
| 20260905075322 | 75 | 163 | 0.0 | 0.0 | 0.00 | 0.00 | 0.00 | 95 | 1012.9 |
| 20260905074821 | 75 | 163 | 0.0 | 0.0 | 0.00 | 0.00 | 0.00 | 95 | 1012.8 |
| 20260905074317 | 75 | 163 | 0.0 | 0.0 | 0.00 | 0.00 | 0.00 | 95 | 1012.9 |
| 20260905073812 | 75 | 164 | 0.0 | 0.0 | 0.00 | 0.00 | 0.00 | 95 | 1012.6 |
| 20260905073307 | 75 | 164 | 0.0 | 0.0 | 0.00 | 0.00 | 0.00 | 95 | 1012.9 |
| 20260905072802 | 76 | 164 | 0.0 | 0.0 | 0.00 | 0.00 | 0.00 | 95 | 1012.7 |
| 20260905072257 | 76 | 164 | 0.0 | 0.0 | 0.00 | 0.00 | 0.00 | 95 | 1012.7 |
| 20260905071754 | 76 | 164 | 0.0 | 0.0 | 0.00 | 0.00 | 0.00 | 94 | 1012.7 |
| 20260905071249 | 76 | 164 | 0.0 | 0.0 | 0.00 | 0.00 | 0.00 | 94 | 1012.8 |
| 20260905070744 | 76 | 164 | 0.0 | 0.0 | 0.00 | 0.00 | 0.00 | 94 | 1013.0 |
| 20260905070241 | 76 | 164 | 0.0 | 0.0 | 0.00 | 0.00 | 0.00 | 94 | 1013.0 |
| 20260905065739 | 76 | 164 | 0.0 | 0.0 | 0.00 | 0.00 | 0.00 | 94 | 1013.0 |
| 20260905065233 | 76 | 164 | 0.0 | 0.0 | 0.00 | 0.00 | 0.00 | 94 | 1012.9 |
| 20260905064728 | 76 | 164 | 0.0 | 0.0 | 0.00 | 0.00 | 0.00 | 94 | 1013.3 |
| 20260905064224 | 76 | 164 | 0.0 | 0.0 | 0.00 | 0.00 | 0.00 | 93 | 1013.2 |
| 20260905063722 | 76 | 164 | 0.0 | 0.0 | 0.00 | 0.00 | 0.00 | 93 | 1013.5 |
| 20260905063218 | 76 | 164 | 0.0 | 0.0 | 0.00 | 0.00 | 0.00 | 93 | 1013.5 |
| 20260905062714 | 77 | 164 | 0.0 | 0.0 | 0.00 | 0.00 | 0.00 | 93 | 1013.3 |
| 20260905062214 | 77 | 164 | 0.0 | 0.0 | 0.00 | 0.00 | 0.00 | 93 | 1013.4 |
| 20260905061713 | 77 | 164 | 0.0 | 0.0 | 0.00 | 0.00 | 0.00 | 93 | 1013.5 |
| 20260905061208 | 77 | 164 | 0.0 | 0.0 | 0.00 | 0.00 | 0.00 | 93 | 1013.7 |
| 20260905060703 | 77 | 164 | 0.0 | 0.0 | 0.00 | 0.00 | 0.00 | 93 | 1013.7 |
| 20260905060200 | 77 | 164 | 0.0 | 0.0 | 0.00 | 0.00 | 0.00 | 92 | 1013.8 |
| 20260905055658 | 77 | 164 | 0.0 | 0.0 | 0.00 | 0.00 | 0.00 | 92 | 1014.0 |
| 20260905055154 | 77 | 164 | 0.0 | 0.0 | 0.00 | 0.00 | 0.00 | 92 | 1013.9 |
| 20260905054649 | 77 | 164 | 0.0 | 0.0 | 0.00 | 0.00 | 0.00 | 92 | 1014.1 |
| 20260905054144 | 77 | 164 | 0.0 | 0.0 | 0.00 | 0.00 | 0.00 | 92 | 1014.0 |
| 20260905053644 | 77 | 164 | 0.0 | 0.0 | 0.00 | 0.00 | 0.00 | 91 | 1014.0 |
| 20260905053139 | 77 | 164 | 0.0 | 0.0 | 0.00 | 0.00 | 0.00 | 91 | 1014.2 |
| 20260905052638 | 77 | 163 | 0.0 | 0.0 | 0.00 | 0.00 | 0.00 | 91 | 1014.1 |
| 20260905052134 | 77 | 165 | 0.0 | 0.0 | 0.00 | 0.00 | 0.00 | 91 | 1014.2 |
| 20260905051629 | 77 | 165 | 0.0 | 0.0 | 0.00 | 0.00 | 0.00 | 90 | 1014.2 |
| 20260905051126 | 77 | 165 | 0.0 | 0.0 | 0.00 | 0.00 | 0.00 | 90 | 1014.1 |
| 20260905050622 | 78 | 165 | 0.0 | 0.0 | 0.00 | 0.00 | 0.00 | 90 | 1014.1 |
| 20260905050118 | 78 | 165 | 0.0 | 0.0 | 0.00 | 0.00 | 0.00 | 89 | 1014.0 |
| 20260905045618 | 78 | 165 | 0.0 | 0.0 | 0.00 | 0.00 | 0.00 | 89 | 1014.2 |
| 20260905045114 | 78 | 165 | 0.0 | 0.0 | 0.00 | 0.00 | 0.00 | 89 | 1014.2 |
| 20260905044613 | 78 | 165 | 0.0 | 0.0 | 0.00 | 0.00 | 0.00 | 89 | 1014.3 |
| 20260905044108 | 78 | 165 | 0.0 | 0.0 | 0.00 | 0.00 | 0.00 | 88 | 1014.3 |
| 20260905043607 | 78 | 165 | 0.0 | 0.0 | 0.00 | 0.00 | 0.00 | 88 | 1014.2 |
| 20260905043102 | 78 | 165 | 0.0 | 0.0 | 0.00 | 0.00 | 0.00 | 88 | 1014.2 |
| 20260905042601 | 79 | 165 | 0.0 | 0.0 | 0.00 | 0.00 | 0.00 | 88 | 1014.1 |
| 20260905042056 | 79 | 165 | 0.0 | 0.0 | 0.00 | 0.00 | 0.00 | 88 | 1014.4 |
| 20260905041552 | 79 | 165 | 0.0 | 0.0 | 0.00 | 0.00 | 0.00 | 87 | 1014.5 |
| 20260905041047 | 79 | 165 | 0.0 | 0.0 | 0.00 | 0.00 | 0.00 | 87 | 1014.2 |
| 20260905040547 | 79 | 160 | 0.0 | 0.0 | 0.00 | 0.00 | 0.00 | 88 | 1014.4 |
| 20260905040045 | 79 | 159 | 0.0 | 0.0 | 0.00 | 0.00 | 0.00 | 87 | 1014.4 |
| 20260905035541 | 79 | 159 | 0.0 | 0.0 | 0.00 | 0.00 | 0.00 | 87 | 1014.4 |
| 20260905035038 | 80 | 159 | 0.0 | 0.0 | 0.00 | 0.00 | 0.00 | 87 | 1014.4 |
| 20260905034534 | 80 | 159 | 0.0 | 0.0 | 0.00 | 0.00 | 0.00 | 87 | 1014.3 |
| 20260905034033 | 79 | 159 | 0.0 | 0.0 | 0.00 | 0.00 | 0.00 | 87 | 1014.3 |
| 20260905033532 | 80 | 161 | 0.0 | 0.0 | 0.00 | 0.00 | 0.00 | 87 | 1014.3 |
| 20260905033028 | 80 | 161 | 0.0 | 0.0 | 0.00 | 0.00 | 0.00 | 87 | 1014.5 |
| 20260905032523 | 80 | 161 | 0.0 | 0.0 | 0.00 | 0.00 | 0.00 | 87 | 1014.5 |
| 20260905032018 | 80 | 161 | 0.0 | 0.0 | 0.00 | 0.00 | 0.00 | 87 | 1014.5 |
| 20260905031514 | 80 | 161 | 0.0 | 0.0 | 0.00 | 0.00 | 0.00 | 87 | 1014.6 |
| 20260905031014 | 80 | 160 | 0.0 | 0.0 | 0.00 | 0.00 | 0.00 | 87 | 1014.5 |
| 20260905030509 | 80 | 160 | 0.0 | 0.0 | 0.00 | 0.00 | 0.00 | 87 | 1014.3 |
| 20260905030009 | 80 | 160 | 0.0 | 0.0 | 0.00 | 0.00 | 0.00 | 86 | 1014.2 |
| 20260905025504 | 80 | 159 | 0.0 | 0.0 | 0.00 | 0.00 | 0.00 | 86 | 1014.3 |
| 20260905025001 | 81 | 159 | 0.0 | 0.0 | 0.00 | 0.00 | 0.00 | 86 | 1014.3 |
| 20260905024501 | 80 | 159 | 0.0 | 0.0 | 0.00 | 0.00 | 0.00 | 87 | 1014.2 |
| 20260905023957 | 80 | 158 | 0.0 | 0.0 | 0.00 | 0.00 | 0.00 | 88 | 1014.0 |
| 20260905023457 | 81 | 164 | 0.0 | 0.0 | 0.00 | 0.00 | 0.00 | 86 | 1014.1 |
| 20260905022955 | 81 | 164 | 0.0 | 0.0 | 0.00 | 0.00 | 0.00 | 86 | 1014.4 |
| 20260905022451 | 81 | 164 | 0.0 | 0.0 | 0.00 | 0.00 | 0.00 | 86 | 1014.2 |
| 20260905021946 | 81 | 164 | 0.0 | 0.0 | 0.00 | 0.00 | 0.00 | 86 | 1014.0 |
| 20260905021446 | 81 | 164 | 0.0 | 0.0 | 0.00 | 0.00 | 0.00 | 85 | 1014.2 |
| 20260905020941 | 81 | 164 | 0.0 | 0.0 | 0.00 | 0.00 | 0.00 | 84 | 1014.3 |
| 20260905020442 | 82 | 164 | 0.0 | 0.0 | 0.00 | 0.00 | 0.00 | 83 | 1014.1 |
| 20260905015942 | 82 | 164 | 0.0 | 0.0 | 0.00 | 0.00 | 0.00 | 83 | 1014.2 |
| 20260905015440 | 82 | 164 | 0.0 | 0.0 | 0.00 | 0.00 | 0.00 | 83 | 1014.1 |
| 20260905014939 | 82 | 164 | 0.0 | 0.0 | 0.00 | 0.00 | 0.00 | 82 | 1014.0 |
| 20260905014435 | 82 | 164 | 0.0 | 0.0 | 0.00 | 0.00 | 0.00 | 81 | 1014.0 |
| 20260905013930 | 83 | 164 | 0.0 | 0.0 | 0.00 | 0.00 | 0.00 | 80 | 1014.1 |
| 20260905013427 | 83 | 164 | 0.0 | 0.0 | 0.00 | 0.00 | 0.00 | 79 | 1013.8 |
| 20260905012927 | 83 | 166 | 0.0 | 0.0 | 0.00 | 0.00 | 0.00 | 79 | 1013.7 |
| 20260905012422 | 83 | 165 | 0.0 | 0.0 | 0.00 | 0.00 | 0.00 | 78 | 1013.8 |
| 20260905011919 | 84 | 165 | 0.0 | 0.0 | 0.00 | 0.00 | 0.00 | 78 | 1013.7 |
| 20260905011414 | 84 | 165 | 0.0 | 0.0 | 0.00 | 0.00 | 0.00 | 77 | 1013.9 |
| 20260905010910 | 84 | 165 | 0.0 | 0.0 | 0.00 | 0.00 | 0.00 | 77 | 1013.9 |
| 20260905010405 | 84 | 165 | 0.0 | 0.0 | 0.00 | 0.00 | 0.00 | 76 | 1014.0 |
| 20260905005901 | 85 | 165 | 0.0 | 0.0 | 0.00 | 0.00 | 0.00 | 75 | 1013.9 |
| 20260905005356 | 84 | 165 | 0.0 | 0.0 | 0.00 | 0.00 | 0.00 | 76 | 1013.4 |
| 20260905004852 | 84 | 165 | 0.0 | 0.0 | 0.00 | 0.00 | 0.00 | 75 | 1013.8 |
| 20260905004351 | 85 | 165 | 0.0 | 0.0 | 0.00 | 0.00 | 0.00 | 74 | 1014.0 |
| 20260905003847 | 85 | 165 | 0.0 | 0.0 | 0.00 | 0.00 | 0.00 | 73 | 1013.8 |
| 20260905003343 | 86 | 166 | 0.0 | 0.0 | 0.00 | 0.00 | 0.00 | 73 | 1013.7 |
| 20260905002839 | 86 | 166 | 0.0 | 0.0 | 0.00 | 0.00 | 0.00 | 72 | 1013.7 |
| 20260905002338 | 87 | 166 | 0.0 | 0.0 | 0.00 | 0.00 | 0.00 | 71 | 1013.7 |
| 20260905001833 | 87 | 165 | 0.0 | 0.0 | 0.00 | 0.00 | 0.00 | 70 | 1013.7 |
| 20260905001332 | 88 | 165 | 0.0 | 0.0 | 0.00 | 0.00 | 0.00 | 68 | 1013.8 |
| 20260905000828 | 88 | 165 | 0.0 | 0.0 | 0.00 | 0.00 | 0.00 | 67 | 1013.7 |
| 20260905000325 | 89 | 166 | 0.0 | 0.0 | 0.00 | 0.00 | 0.00 | 65 | 1013.7 |
| 20260904235818 | 89 | 165 | 0.0 | 0.0 | 0.00 | 0.00 | 0.00 | 64 | 1013.5 |
| 20260904235314 | 90 | 166 | 0.0 | 0.0 | 0.00 | 0.00 | 0.00 | 64 | 1013.7 |
| 20260904234808 | 90 | 167 | 0.0 | 0.0 | 0.00 | 0.00 | 0.00 | 63 | 1013.8 |
| 20260904234303 | 91 | 169 | 0.0 | 0.0 | 0.00 | 0.00 | 0.00 | 62 | 1013.8 |
| 20260904233759 | 91 | 167 | 0.0 | 0.0 | 0.00 | 0.00 | 0.00 | 60 | 1013.5 |
| 20260904233255 | 92 | 169 | 1.0 | 1.0 | 0.00 | 0.00 | 0.00 | 59 | 1013.8 |
| 20260904232752 | 92 | 169 | 0.0 | 0.0 | 0.00 | 0.00 | 0.00 | 58 | 1013.8 |
| 20260904232248 | 93 | 170 | 1.0 | 1.0 | 0.00 | 0.00 | 0.00 | 57 | 1013.5 |
| 20260904231743 | 93 | 181 | 2.0 | 2.0 | 0.00 | 0.00 | 0.00 | 56 | 1013.5 |
| 20260904231239 | 93 | 165 | 0.0 | 0.0 | 0.00 | 0.00 | 0.00 | 56 | 1013.5 |
| 20260904230738 | 94 | 164 | 0.0 | 1.0 | 0.00 | 0.00 | 0.00 | 56 | 1013.8 |
| 20260904230232 | 94 | 168 | 0.0 | 0.0 | 0.00 | 0.00 | 0.00 | 55 | 1013.3 |
| 20260904225732 | 95 | 234 | 1.0 | 2.0 | 0.00 | 0.00 | 0.00 | 53 | 1013.5 |
| 20260904225226 | 96 | 192 | 2.0 | 2.0 | 0.00 | 0.00 | 0.00 | 52 | 1013.5 |
| 20260904224725 | 96 | 203 | 0.0 | 1.0 | 0.00 | 0.00 | 0.00 | 51 | 1013.4 |
| 20260904224220 | 96 | 174 | 0.0 | 1.0 | 0.00 | 0.00 | 0.00 | 52 | 1013.5 |
| 20260904223719 | 96 | 185 | 1.0 | 2.0 | 0.00 | 0.00 | 0.00 | 51 | 1013.4 |
| 20260904223215 | 97 | 176 | 2.0 | 3.0 | 0.00 | 0.00 | 0.00 | 51 | 1013.5 |
| 20260904222710 | 96 | 155 | 1.0 | 1.0 | 0.00 | 0.00 | 0.00 | 53 | 1013.1 |
| 20260904222206 | 96 | 224 | 3.0 | 4.0 | 0.00 | 0.00 | 0.00 | 52 | 1013.3 |
| 20260904221705 | 97 | 198 | 3.0 | 3.0 | 0.00 | 0.00 | 0.00 | 51 | 1013.4 |
| 20260904221200 | 97 | 167 | 1.0 | 1.0 | 0.00 | 0.00 | 0.00 | 50 | 1013.3 |
| 20260904220655 | 96 | 173 | 1.0 | 1.0 | 0.00 | 0.00 | 0.00 | 52 | 1013.4 |
| 20260904220150 | 97 | 220 | 4.0 | 4.0 | 0.00 | 0.00 | 0.00 | 48 | 1013.3 |
| 20260904215650 | 97 | 223 | 1.0 | 1.0 | 0.00 | 0.00 | 0.00 | 49 | 1013.1 |
| 20260904215147 | 97 | 171 | 2.0 | 2.0 | 0.00 | 0.00 | 0.00 | 49 | 1013.2 |
| 20260904214647 | 98 | 168 | 1.0 | 1.0 | 0.00 | 0.00 | 0.00 | 49 | 1013.2 |
| 20260904214142 | 98 | 161 | 0.0 | 1.0 | 0.00 | 0.00 | 0.00 | 48 | 1013.1 |
| 20260904213640 | 98 | 162 | 2.0 | 2.0 | 0.00 | 0.00 | 0.00 | 47 | 1013.3 |
| 20260904213137 | 98 | 212 | 1.0 | 2.0 | 0.00 | 0.00 | 0.00 | 49 | 1013.3 |
| 20260904212637 | 98 | 189 | 1.0 | 2.0 | 0.00 | 0.00 | 0.00 | 48 | 1013.5 |
| 20260904212132 | 99 | 182 | 1.0 | 1.0 | 0.00 | 0.00 | 0.00 | 47 | 1013.4 |
| 20260904211632 | 98 | 164 | 0.0 | 0.0 | 0.00 | 0.00 | 0.00 | 46 | 1013.5 |
| 20260904211127 | 98 | 157 | 0.0 | 0.0 | 0.00 | 0.00 | 0.00 | 47 | 1013.5 |
| 20260904210627 | 98 | 267 | 3.0 | 3.0 | 0.00 | 0.00 | 0.00 | 45 | 1013.8 |
| 20260904210123 | 99 | 222 | 2.0 | 2.0 | 0.00 | 0.00 | 0.00 | 46 | 1013.9 |
| 20260904205618 | 98 | 169 | 2.0 | 3.0 | 0.00 | 0.00 | 0.00 | 45 | 1013.8 |
| 20260904205115 | 98 | 221 | 3.0 | 4.0 | 0.00 | 0.00 | 0.00 | 46 | 1013.8 |
| 20260904204610 | 98 | 183 | 0.0 | 1.0 | 0.00 | 0.00 | 0.00 | 46 | 1013.9 |
| 20260904204106 | 98 | 179 | 4.0 | 7.0 | 0.00 | 0.00 | 0.00 | 46 | 1014.1 |
| 20260904203602 | 98 | 175 | 2.0 | 2.0 | 0.00 | 0.00 | 0.00 | 48 | 1014.0 |
| 20260904203058 | 98 | 294 | 2.0 | 3.0 | 0.00 | 0.00 | 0.00 | 47 | 1014.0 |
| 20260904202554 | 98 | 226 | 2.0 | 3.0 | 0.00 | 0.00 | 0.00 | 47 | 1014.1 |
| 20260904202050 | 100 | 286 | 4.0 | 6.0 | 0.00 | 0.00 | 0.00 | 45 | 1014.3 |
| 20260904201545 | 99 | 163 | 0.0 | 0.0 | 0.00 | 0.00 | 0.00 | 49 | 1014.2 |
| 20260904201040 | 98 | 162 | 1.0 | 2.0 | 0.00 | 0.00 | 0.00 | 48 | 1014.2 |
| 20260904200538 | 99 | 161 | 2.0 | 2.0 | 0.00 | 0.00 | 0.00 | 46 | 1014.3 |
| 20260904200034 | 99 | 184 | 1.0 | 2.0 | 0.00 | 0.00 | 0.00 | 44 | 1014.2 |
| 20260904195532 | 99 | 170 | 0.0 | 0.0 | 0.00 | 0.00 | 0.00 | 48 | 1014.4 |
| 20260904195031 | 98 | 235 | 3.0 | 3.0 | 0.00 | 0.00 | 0.00 | 45 | 1014.5 |
| 20260904194526 | 98 | 240 | 3.0 | 4.0 | 0.00 | 0.00 | 0.00 | 45 | 1014.6 |
| 20260904194022 | 99 | 263 | 4.0 | 8.0 | 0.00 | 0.00 | 0.00 | 46 | 1014.6 |
| 20260904193522 | 99 | 350 | 3.0 | 4.0 | 0.00 | 0.00 | 0.00 | 44 | 1014.7 |
| 20260904193019 | 98 | 154 | 1.0 | 1.0 | 0.00 | 0.00 | 0.00 | 47 | 1014.7 |
| 20260904192517 | 98 | 167 | 1.0 | 2.0 | 0.00 | 0.00 | 0.00 | 48 | 1014.7 |
| 20260904192014 | 99 | 215 | 1.0 | 3.0 | 0.00 | 0.00 | 0.00 | 46 | 1015.0 |
| 20260904191510 | 99 | 171 | 1.0 | 1.0 | 0.00 | 0.00 | 0.00 | 45 | 1014.7 |
| 20260904191007 | 99 | 157 | 0.0 | 1.0 | 0.00 | 0.00 | 0.00 | 46 | 1015.1 |
| 20260904190502 | 99 | 220 | 2.0 | 3.0 | 0.00 | 0.00 | 0.00 | 48 | 1015.1 |
| 20260904185958 | 98 | 186 | 1.0 | 1.0 | 0.00 | 0.00 | 0.00 | 48 | 1015.2 |
| 20260904185454 | 98 | 284 | 5.0 | 7.0 | 0.00 | 0.00 | 0.00 | 46 | 1015.3 |
| 20260904184949 | 98 | 260 | 2.0 | 3.0 | 0.00 | 0.00 | 0.00 | 50 | 1015.3 |
| 20260904184448 | 98 | 162 | 2.0 | 2.0 | 0.00 | 0.00 | 0.00 | 48 | 1015.4 |
| 20260904183944 | 97 | 234 | 2.0 | 3.0 | 0.00 | 0.00 | 0.00 | 50 | 1015.5 |
| 20260904183439 | 98 | 223 | 4.0 | 4.0 | 0.00 | 0.00 | 0.00 | 47 | 1015.5 |
| 20260904182934 | 98 | 202 | 1.0 | 1.0 | 0.00 | 0.00 | 0.00 | 50 | 1015.6 |